olympia.gr alexa rank chart, olympia.gr alexa rank daily changes

olympia.gr alexa rank chart, olympia.gr alexa rank daily changes

olympia.gr
Actual rank:
29 095

RANK HISTORY

Date Rank Diff
2017/01/24 29 095 -158
2017/01/23 29 253 -131
2017/01/22 29 384 +159
2017/01/21 29 225 -41
2017/01/20 29 266 +87
2017/01/19 29 179 +256
2017/01/18 28 923 -18
2017/01/17 28 941 +34
2017/01/16 28 907 +3
2017/01/15 28 904 -98
2017/01/14 29 002 +207
2017/01/13 28 795 +232
2017/01/12 28 563 -86
2017/01/11 28 649 -287
2017/01/10 28 936 -1
2017/01/09 28 937 -60
2017/01/08 28 997 -222
2017/01/07 29 219 +107
2017/01/06 29 112 +307
2017/01/05 28 805 -35
2017/01/04 28 840 -252
2017/01/03 29 092 +20
2017/01/02 29 072 +69
2017/01/01 29 003 +95
2016/12/31 28 908 +117
2016/12/30 28 791 -98
2016/12/29 28 889 -364
2016/12/28 29 253 -129
2016/12/27 29 382 -260
2016/12/26 29 642 -417
2016/12/25 30 059 -75
2016/12/24 30 134 +231
2016/12/23 29 903 +33
2016/12/22 29 870 -169
2016/12/21 30 039 +42
2016/12/20 29 997 +59
2016/12/19 29 938 +617
2016/12/18 29 321 +1 229
2016/12/17 28 092 +89
2016/12/16 28 003 +247
2016/12/15 27 756 +457
2016/12/14 27 299 +3
2016/12/13 27 296 -8
2016/12/12 27 304 -126
2016/12/11 27 430 +443
2016/12/10 26 987 +17
2016/12/09 26 970 +82
2016/12/08 26 888 +232
2016/12/07 26 656 +204
2016/12/06 26 452 -150
2016/12/05 26 602 +54
2016/12/04 26 548 +213
2016/12/02 26 335 -20
2016/12/01 26 355 +217
2016/11/30 26 138 +28
2016/11/29 26 110 +539
2016/11/28 25 571 -84
2016/11/27 25 655 +86
2016/11/26 25 569 +59
2016/11/25 25 510

WIDGET FOR YOUR SITE

DOMAINS WITH THE NEAREST RANK

Domain Rank
rejseplanen.dk 29 090
eyeem.com 29 091
watchmovienow.site 29 092
a101.com.tr 29 093
gossipmill.com 29 094
olympia.gr 29 095
bug.hr 29 096
crazydomains.com.au 29 097
ht.ly 29 098
testforspeed-1239.appspot.com 29 099
swissinfo.ch 29 100

DOMAINS WITH THE NEAREST RANK BY TLD .gr

Domain Rank
novasports.gr 27 788
gocar.gr 28 085
onmed.gr 28 359
hcmr.gr 28 609
athensmagazine.gr 28 734
olympia.gr 29 095
sportingbet.gr 29 480
fouit.gr 29 620
autotriti.gr 29 761
eap.gr 29 796
trikalanews.gr 29 976